Wind_Speed
3 2 4 4 3 3 4 2 2 1 4 7 6 5 5 6 6 6 7 10 10 10 9 9 11 13 15 15 12 13 12 13 14 14 14 15 15 15 14 13 13 14 15 15 15 16 16 18 19
7 5 5 4 2 3 2 1 2 4 7 7 6 5 5 7 6 8 9 9 8 9 10 11 13 14 11 10 12 13 14 14 14 14 14 13 13 13 14 14 14 13 15 16 16 15 15 16 17
9 7 8 3 1 3 2 1 2 5 8 7 6 5 6 6 7 7 7 7 7 8 9 11 11 8 9 10 11 12 12 13 13 13 12 12 13 13 14 15 15 15 14 15 16 19 19 18 17
13 12 9 4 0 2 2 0 3 6 7 6 5 5 6 7 7 6 6 5 6 8 9 8 7 8 9 10 11 13 14 13 13 13 13 12 12 12 11 13 14 15 15 15 15 16 18 21 19
12 12 7 4 2 1 0 2 5 7 6 5 5 6 6 6 6 6 6 7 6 8 8 7 7 8 8 10 12 12 13 13 13 13 12 13 13 13 13 14 14 16 17 18 18 18 17 18 20
6 8 4 5 2 1 2 5 5 6 6 5 6 6 4 5 5 6 7 7 7 7 7 7 7 8 9 10 10 11 11 12 12 13 14 14 13 13 14 15 15 16 16 16 18 18 18 17 18
7 6 6 4 3 2 3 6 6 5 5 5 7 6 5 5 5 6 7 5 6 5 6 7 8 8 9 9 10 10 11 11 12 13 14 14 14 14 14 14 14 15 17 18 18 18 19 19 18
4 5 5 4 3 4 5 7 7 5 5 6 6 5 5 5 6 6 4 4 4 5 5 6 8 8 7 7 8 9 11 12 12 13 13 14 15 16 16 16 16 16 16 17 18 19 20 20 20
4 4 4 3 4 4 6 7 6 5 5 6 5 5 5 6 6 5 4 3 3 4 5 6 7 6 6 7 8 10 11 12 13 13 14 15 16 16 16 16 16 16 16 16 17 18 18 19 19
2 4 2 2 3 5 6 6 6 6 6 6 6 6 6 6 4 2 2 3 1 2 4 4 4 5 6 7 9 9 10 11 10 12 14 15 16 16 16 16 16 15 15 15 15 15 16 17 19
1 1 2 2 3 3 3 4 6 6 6 6 6 6 6 4 0 2 3 2 1 2 2 1 2 4 6 7 7 7 8 9 10 12 13 15 16 15 16 16 16 17 17 16 16 17 17 16 16
3 1 1 1 2 3 3 4 5 6 6 6 6 6 5 2 2 3 3 3 2 1 1 0 2 3 4 5 7 8 9 10 12 12 13 14 13 14 15 15 15 16 16 17 18 18 18 18 18
2 2 1 2 3 4 5 6 5 5 5 5 5 6 2 2 3 4 4 3 2 3 2 1 1 2 3 5 7 9 10 11 11 12 13 12 13 13 14 14 15 16 17 18 19 20 21 22 23
3 3 2 4 5 6 7 6 6 5 5 5 6 4 1 3 5 5 4 4 4 4 3 2 1 2 4 6 7 8 9 9 9 10 10 12 12 14 15 16 17 17 17 17 18 20 22 24 26
3 4 3 5 6 7 9 4 6 7 6 6 6 3 4 5 5 6 5 5 5 5 3 1 1 3 5 5 6 7 9 10 11 10 11 12 12 13 14 16 17 18 19 20 21 23 24 26 28
5 3 6 8 8 8 9 6 9 7 9 8 6 4 5 6 8 7 6 6 6 5 4 3 3 4 5 6 7 9 10 10 10 10 11 12 13 14 15 16 18 19 20 22 23 24 27 28 30
4 8 9 9 11 11 11 10 9 10 10 8 7 6 7 8 7 8 8 7 7 7 5 5 6 6 6 7 8 9 10 11 11 11 12 12 13 14 15 17 18 19 20 22 23 25 26 28 31
9 13 13 12 14 16 17 8 13 12 10 9 7 6 8 8 9 10 10 9 9 8 7 7 8 9 8 8 9 10 11 11 12 12 13 13 13 14 15 17 19 19 20 22 23 25 27 28 29
11 12 14 14 16 17 17 16 9 17 11 8 7 6 9 10 10 9 10 10 10 10 10 10 11 11 10 10 11 12 12 12 12 13 13 14 14 14 16 17 18 19 21 23 23 25 28 28 29
10 12 14 11 16 21 20 20 12 15 6 8 8 5 8 11 10 10 11 11 12 14 13 13 13 12 12 11 12 12 13 13 13 13 14 15 15 15 16 17 18 19 21 23 25 27 29 31 33
11 14 12 15 19 20 18 10 5 5 8 6 4 4 5 7 10 11 11 11 14 13 15 16 15 14 14 14 13 13 13 13 14 14 14 14 15 16 16 17 18 19 21 22 24 27 29 32 36
14 11 14 17 18 10 19 9 13 6 6 6 5 4 5 5 7 10 11 12 13 14 17 16 16 16 16 15 14 13 13 13 14 14 15 15 15 16 16 17 18 20 21 24 26 28 30 32 33
12 13 17 19 17 16 8 6 4 5 3 7 8 5 5 5 6 7 9 12 15 17 17 17 17 16 16 15 14 13 13 14 14 14 14 15 15 16 16 17 18 20 21 23 26 29 31 32 34
13 14 17 14 10 3 4 4 5 2 3 5 7 6 5 6 7 7 9 11 12 15 17 16 16 17 17 16 15 13 13 15 14 15 14 14 16 16 16 17 18 20 21 23 25 28 30 31 33
7 9 6 4 3 4 5 9 8 11 11 11 10 7 6 5 4 6 9 12 13 15 17 18 17 16 18 17 16 15 14 14 15 15 15 15 16 17 16 17 18 20 21 22 24 26 29 30 31
7 5 2 3 2 6 17 8 2 6 9 8 6 6 5 2 6 11 13 14 15 16 18 19 18 18 19 18 16 17 16 15 15 16 15 16 16 17 17 18 18 20 21 22 24 26 28 29 30
3 4 5 5 7 4 5 9 12 7 4 3 5 8 8 7 15 20 20 19 19 21 21 22 21 20 20 19 19 17 17 16 17 17 15 16 16 17 17 18 19 20 21 22 23 25 27 28 30
10 7 4 3 1 5 6 8 11 7 7 6 7 6 7 20 24 25 25 24 25 27 27 25 23 22 21 21 20 20 19 18 17 17 17 18 18 18 18 18 19 20 22 23 23 25 27 28 30
8 9 8 5 6 4 3 6 8 8 7 14 6 13 28 33 34 29 28 27 27 26 24 24 24 24 24 22 22 22 21 21 19 18 18 19 19 20 19 19 19 20 21 23 24 25 27 28 29
17 14 14 8 6 9 8 21 18 23 21 6 21 31 35 35 35 33 30 26 25 25 27 25 26 26 25 25 25 23 23 23 21 19 20 21 19 20 20 21 20 21 21 22 23 25 27 28 29
Wind_Direction
208 307 0 8 353 53 72 115 143 223 311 321 319 323 324 321 309 310 314 313 320 329 329 334 333 335 337 342 356 3 2 360 356 354 354 352 351 348 345 343 338 330 322 314 309 304 304 299 297
235 275 318 332 328 47 29 356 273 260 296 310 316 316 310 306 299 298 303 313 322 324 331 333 334 338 357 8 359 356 355 355 356 355 353 352 351 349 346 343 343 337 331 326 321 315 305 303 298
254 279 298 321 15 34 8 262 287 297 313 322 323 310 311 304 305 305 311 314 315 324 327 334 346 8 4 2 358 356 355 356 357 358 357 356 352 350 345 340 339 336 333 328 324 321 319 310 307
256 269 280 249 192 26 356 170 291 320 332 332 322 328 311 300 303 309 304 311 327 325 341 357 17 5 1 1 359 357 358 1 2 359 355 354 351 351 350 344 343 338 334 331 324 321 316 314 312
254 258 251 202 162 81 351 321 322 331 338 338 331 326 322 316 318 316 319 325 334 352 8 19 11 7 1 360 2 1 3 3 4 6 5 2 358 355 349 346 344 340 337 333 329 325 321 314 311
233 228 214 186 197 193 313 330 314 328 346 331 322 325 322 317 321 324 327 341 356 13 16 6 8 4 0 0 6 11 16 17 12 8 5 1 357 353 352 352 349 348 347 342 338 332 330 327 321
227 224 222 225 231 193 295 316 331 337 335 319 310 320 317 327 333 331 333 355 19 27 21 9 6 3 2 9 17 20 17 17 12 7 6 6 5 6 4 1 357 353 349 344 340 336 333 329 326
221 222 223 253 227 244 304 320 331 335 333 316 310 320 323 338 334 332 351 27 39 33 27 12 4 3 4 19 21 18 12 10 13 14 21 18 11 8 3 357 354 351 348 347 346 342 340 335 331
225 201 207 239 240 278 314 325 333 329 318 306 315 329 341 335 338 353 16 40 51 40 35 22 359 358 14 14 10 10 10 16 22 21 15 11 7 2 360 358 357 355 353 350 346 343 341 338 335
198 209 264 256 265 295 325 329 326 316 310 317 331 339 332 331 347 35 64 50 38 69 49 20 1 360 7 11 7 7 11 23 10 14 6 3 360 359 360 359 358 355 352 350 347 344 341 338 336
40 247 253 268 285 306 322 329 317 312 317 320 325 325 321 314 211 147 137 116 110 95 62 28 22 19 9 12 3 3 10 11 3 8 358 360 359 358 359 359 357 354 351 348 346 345 342 338 333
59 13 307 256 315 327 313 306 305 299 298 310 324 323 312 294 207 175 159 142 139 151 147 338 49 31 15 6 6 6 359 360 356 359 358 360 354 356 355 355 352 349 347 347 346 344 339 335 331
18 21 19 31 3 352 325 304 291 279 292 310 327 319 301 242 210 193 180 155 170 190 197 204 51 12 10 4 6 4 3 360 351 1 359 350 355 352 352 352 349 349 350 349 346 342 339 336 334
25 25 34 9 1 347 338 317 306 304 308 316 322 307 236 204 205 200 189 184 202 207 194 197 339 337 347 1 359 352 359 350 357 2 350 353 352 351 348 347 346 346 348 346 344 341 339 339 340
32 19 349 342 343 336 339 319 318 308 308 307 312 272 203 202 202 204 198 202 217 217 211 215 303 317 331 348 346 346 349 354 355 353 348 347 348 346 343 344 343 348 350 348 346 344 342 343 341
341 330 355 329 326 324 321 314 316 309 307 299 301 260 208 201 202 203 206 214 226 235 233 246 273 289 308 328 335 343 345 347 344 343 340 340 345 341 343 341 345 350 349 346 345 344 344 343 343
340 328 330 331 321 312 313 311 296 297 294 293 292 256 212 206 199 200 210 222 229 237 246 259 269 281 297 310 320 330 333 340 338 335 335 336 336 337 340 341 344 347 345 343 342 342 343 343 343
329 333 325 327 315 311 309 315 288 287 277 274 279 249 220 211 209 206 210 222 235 242 248 255 267 275 285 298 311 316 321 327 330 330 331 329 329 333 336 340 343 342 343 340 339 341 339 341 343
325 325 323 326 318 314 314 314 292 282 262 264 270 249 222 218 224 218 222 229 240 248 252 252 262 272 282 294 302 308 315 318 321 322 323 322 324 330 334 336 337 339 340 338 338 338 340 343 344
324 323 324 330 326 318 315 320 291 262 239 235 249 246 229 231 233 231 230 237 244 250 257 263 265 272 281 288 293 300 307 310 311 314 317 317 321 325 331 332 333 338 336 336 338 340 340 343 347
320 321 325 322 326 322 326 323 350 306 238 246 268 271 268 249 246 251 255 247 254 263 265 268 274 278 282 286 288 292 298 301 304 308 310 313 317 322 327 328 331 332 334 335 337 338 343 345 347
316 318 318 318 322 317 322 293 310 295 254 248 265 283 287 286 280 273 269 269 268 265 267 274 274 278 282 284 287 291 293 293 298 301 305 309 312 317 320 325 328 330 334 335 336 339 342 344 347
302 311 313 310 309 310 312 291 305 318 281 240 251 259 270 283 296 292 283 272 270 275 278 276 279 280 280 285 287 291 292 290 292 294 297 303 307 310 315 321 324 327 332 334 334 338 340 343 344
302 308 308 301 306 308 338 322 302 324 303 269 264 272 290 292 291 292 295 296 295 288 286 282 281 280 280 281 283 286 289 289 289 290 292 297 301 306 311 316 320 324 329 332 332 336 337 341 341
314 325 316 337 357 232 319 302 268 287 283 276 265 269 284 291 311 325 320 313 305 301 295 292 286 278 275 278 280 280 282 286 286 289 291 294 298 302 307 310 316 321 325 328 331 332 334 337 338
302 307 300 271 283 292 294 250 256 279 284 284 267 249 255 248 347 338 326 316 308 303 299 294 289 280 276 274 272 276 279 279 280 284 287 289 293 297 303 306 312 317 321 325 328 329 330 333 335
294 290 286 275 280 299 262 284 291 279 330 311 249 242 245 292 323 325 319 312 305 304 302 294 287 282 280 275 269 271 271 277 278 280 284 283 287 292 298 303 309 314 317 322 325 326 328 331 332
264 276 291 258 287 284 267 276 260 253 272 318 283 268 297 315 313 312 308 304 306 302 295 296 286 281 275 274 274 270 270 272 273 278 281 283 284 287 292 297 303 309 314 318 322 324 326 329 330
270 265 251 250 260 224 301 256 266 252 255 324 239 292 313 312 307 305 302 299 299 301 296 285 289 281 274 273 268 268 269 270 271 275 274 277 284 286 290 293 299 303 309 315 320 322 324 328 329
271 260 257 230 231 226 261 281 273 256 268 245 306 312 313 308 301 306 306 297 294 294 293 287 284 285 276 267 266 265 264 268 271 272 273 277 279 281 285 290 295 299 305 311 316 320 321 325 328
Height
3192 3192 3192 3192 3196 3192 3192 3194 3193 3193 3194 3193 3192 3191 3192 3191 3191 3194 3190 3188 3188 3187 3186 3186 3185 3184 3182 3180 3178 3178 3177 3176 3174 3173 3171 3169 3167 3166 3164 3164 3163 3161 3160 3160 3159 3158 3157 3156 3156
3192 3192 3192 3192 3193 3192 3193 3193 3193 3193 3193 3192 3192 3191 3191 3191 3190 3189 3189 3188 3187 3186 3185 3184 3183 3181 3180 3180 3178 3177 3175 3174 3173 3172 3170 3168 3167 3165 3163 3162 3162 3161 3159 3157 3156 3156 3156 3155 3153
3192 3192 3193 3192 3192 3192 3193 3193 3193 3193 3192 3192 3191 3191 3190 3190 3189 3188 3187 3186 3186 3185 3185 3183 3181 3180 3179 3178 3177 3176 3175 3174 3172 3171 3169 3168 3166 3164 3163 3161 3160 3159 3159 3157 3156 3153 3153 3152 3152
3191 3192 3193 3192 3192 3192 3193 3193 3193 3192 3192 3191 3190 3190 3190 3189 3188 3187 3187 3186 3185 3184 3183 3181 3181 3180 3179 3177 3176 3175 3173 3173 3171 3170 3168 3167 3165 3164 3163 3160 3158 3157 3156 3155 3154 3154 3152 3148 3149
3189 3190 3190 3191 3191 3192 3192 3192 3192 3192 3191 3190 3189 3189 3188 3187 3187 3186 3185 3185 3184 3182 3182 3181 3180 3179 3178 3177 3175 3174 3173 3172 3171 3169 3168 3166 3165 3163 3162 3160 3159 3157 3155 3153 3152 3151 3150 3148 3146
3188 3189 3189 3190 3191 3191 3191 3192 3192 3191 3189 3189 3188 3188 3188 3187 3186 3185 3184 3183 3182 3181 3181 3181 3179 3179 3178 3176 3175 3174 3173 3172 3170 3169 3167 3166 3165 3163 3161 3160 3158 3156 3154 3152 3150 3148 3147 3145 3144
3188 3188 3189 3190 3190 3191 3191 3191 3190 3189 3188 3188 3188 3187 3188 3186 3185 3184 3183 3182 3182 3181 3181 3180 3179 3178 3177 3176 3174 3173 3172 3171 3170 3168 3167 3165 3163 3162 3161 3159 3157 3156 3153 3151 3149 3147 3145 3143 3141
3187 3189 3189 3189 3190 3191 3191 3190 3189 3188 3188 3187 3187 3187 3186 3185 3184 3183 3182 3181 3181 3180 3180 3180 3179 3178 3177 3175 3173 3171 3170 3170 3169 3167 3166 3164 3163 3162 3160 3158 3157 3155 3153 3150 3147 3145 3143 3141 3138
3187 3188 3188 3189 3189 3190 3189 3188 3187 3186 3186 3186 3186 3185 3185 3184 3183 3182 3181 3181 3180 3179 3179 3179 3179 3177 3175 3174 3173 3171 3170 3169 3167 3167 3166 3164 3162 3161 3159 3157 3155 3154 3152 3149 3147 3144 3141 3138 3136
3188 3188 3188 3188 3188 3188 3187 3186 3186 3186 3185 3184 3184 3184 3183 3183 3182 3181 3181 3181 3180 3178 3178 3178 3178 3177 3175 3174 3173 3172 3170 3167 3168 3165 3165 3163 3161 3159 3157 3156 3154 3152 3150 3148 3146 3143 3140 3137 3134
3187 3188 3188 3188 3188 3188 3187 3186 3185 3184 3184 3183 3183 3183 3182 3181 3181 3180 3180 3179 3179 3179 3178 3178 3177 3176 3176 3174 3174 3172 3170 3169 3167 3164 3165 3163 3160 3159 3157 3155 3153 3151 3149 3146 3144 3142 3139 3137 3134
3188 3188 3188 3188 3188 3188 3187 3186 3185 3184 3183 3182 3182 3182 3181 3180 3180 3179 3179 3179 3179 3179 3178 3178 3177 3176 3176 3175 3173 3172 3171 3168 3168 3165 3164 3161 3161 3158 3157 3155 3152 3150 3148 3145 3142 3139 3137 3133 3131
3188 3188 3188 3187 3187 3187 3186 3185 3184 3183 3182 3181 3181 3180 3179 3179 3179 3179 3179 3178 3179 3178 3178 3178 3177 3177 3176 3174 3173 3172 3170 3169 3169 3164 3163 3163 3159 3158 3156 3153 3151 3149 3146 3143 3140 3136 3133 3129 3127
3189 3188 3188 3187 3187 3185 3185 3183 3182 3182 3180 3180 3180 3179 3179 3178 3178 3178 3178 3178 3178 3178 3178 3178 3177 3177 3176 3174 3174 3173 3171 3171 3168 3164 3163 3161 3159 3157 3154 3152 3150 3147 3145 3142 3138 3134 3130 3126 3122
3189 3189 3188 3187 3186 3185 3183 3183 3182 3181 3180 3179 3178 3177 3177 3178 3178 3178 3177 3177 3177 3177 3177 3176 3176 3176 3175 3174 3174 3173 3171 3169 3167 3164 3163 3160 3159 3156 3153 3151 3148 3145 3142 3139 3135 3131 3128 3124 3119
3188 3188 3188 3187 3185 3184 3184 3182 3180 3179 3178 3178 3177 3176 3176 3176 3176 3176 3175 3175 3176 3176 3175 3175 3175 3175 3174 3173 3173 3171 3170 3168 3166 3164 3162 3160 3157 3154 3152 3149 3146 3144 3140 3137 3133 3130 3125 3120 3116
3188 3187 3187 3186 3184 3183 3182 3179 3178 3177 3176 3175 3175 3174 3174 3174 3174 3174 3174 3174 3174 3174 3174 3173 3174 3174 3173 3172 3171 3170 3168 3167 3165 3163 3161 3158 3156 3153 3151 3148 3146 3142 3138 3134 3131 3127 3123 3118 3113
3189 3187 3186 3184 3184 3180 3178 3177 3175 3174 3173 3172 3172 3172 3172 3172 3172 3171 3171 3172 3172 3172 3172 3171 3171 3171 3171 3170 3169 3168 3166 3165 3163 3161 3158 3156 3154 3151 3149 3146 3143 3140 3137 3133 3129 3125 3121 3117 3112
3188 3186 3184 3183 3180 3177 3174 3172 3173 3170 3170 3170 3169 3169 3169 3170 3170 3169 3169 3169 3169 3169 3168 3168 3169 3169 3168 3167 3166 3165 3164 3162 3160 3158 3156 3153 3151 3149 3146 3144 3141 3137 3133 3130 3126 3122 3118 3114 3109
3187 3185 3184 3181 3179 3176 3171 3166 3165 3165 3167 3167 3167 3167 3167 3167 3167 3167 3167 3167 3167 3166 3166 3166 3166 3166 3166 3165 3164 3163 3161 3159 3157 3155 3153 3151 3148 3146 3143 3141 3138 3134 3131 3127 3123 3119 3114 3108 3103
3186 3184 3183 3181 3177 3174 3169 3164 3164 3163 3164 3165 3165 3165 3165 3165 3165 3165 3165 3165 3164 3164 3165 3164 3163 3163 3162 3161 3160 3159 3157 3156 3154 3152 3150 3148 3145 3143 3140 3138 3135 3132 3129 3124 3120 3115 3110 3105 3098
3185 3183 3181 3179 3177 3175 3173 3168 3163 3162 3163 3164 3164 3164 3164 3163 3162 3162 3162 3162 3162 3162 3161 3161 3160 3159 3159 3157 3156 3155 3153 3152 3150 3148 3147 3145 3142 3140 3138 3135 3132 3129 3125 3120 3116 3112 3107 3102 3097
3184 3182 3180 3177 3176 3174 3173 3172 3162 3162 3162 3162 3162 3162 3162 3162 3162 3161 3160 3159 3158 3157 3157 3157 3156 3155 3154 3154 3152 3150 3149 3147 3146 3144 3143 3141 3139 3137 3135 3132 3129 3126 3122 3117 3113 3108 3103 3098 3094
3182 3180 3178 3175 3173 3173 3171 3172 3162 3161 3161 3161 3161 3162 3162 3161 3160 3159 3158 3157 3156 3154 3153 3152 3152 3151 3150 3149 3148 3146 3145 3143 3142 3140 3139 3137 3135 3133 3131 3128 3126 3123 3119 3115 3110 3105 3100 3096 3091
3181 3180 3177 3176 3175 3173 3171 3170 3161 3160 3159 3160 3160 3160 3160 3159 3158 3158 3157 3156 3154 3152 3150 3149 3148 3147 3145 3144 3143 3141 3140 3139 3138 3136 3135 3133 3131 3129 3127 3125 3122 3119 3116 3112 3107 3103 3098 3094 3088
3180 3180 3181 3180 3180 3173 3169 3163 3159 3158 3158 3157 3157 3158 3158 3158 3158 3157 3155 3153 3151 3150 3147 3145 3144 3143 3141 3139 3138 3137 3136 3134 3133 3132 3131 3130 3128 3126 3124 3122 3119 3116 3112 3109 3105 3100 3096 3091 3086
3180 3180 3180 3178 3176 3174 3165 3160 3158 3156 3156 3155 3155 3155 3155 3155 3154 3153 3152 3149 3147 3145 3143 3141 3139 3137 3136 3135 3133 3132 3131 3130 3129 3127 3126 3125 3123 3121 3119 3117 3115 3112 3109 3106 3102 3098 3093 3088 3083
3180 3181 3180 3178 3178 3173 3161 3157 3154 3154 3154 3154 3154 3153 3153 3152 3151 3149 3147 3145 3143 3140 3137 3135 3133 3132 3130 3129 3129 3127 3126 3125 3124 3123 3122 3121 3119 3117 3115 3113 3111 3108 3106 3103 3099 3094 3089 3085 3080
3176 3176 3177 3179 3178 3175 3171 3155 3152 3152 3151 3151 3152 3151 3150 3146 3143 3142 3140 3138 3136 3133 3131 3129 3127 3125 3124 3123 3122 3122 3121 3120 3120 3119 3117 3115 3114 3113 3111 3109 3107 3104 3102 3099 3096 3091 3086 3081 3077
3172 3172 3173 3174 3172 3170 3167 3149 3150 3150 3149 3150 3148 3146 3144 3140 3136 3134 3132 3129 3128 3126 3124 3123 3121 3119 3118 3116 3115 3115 3114 3114 3114 3114 3112 3111 3109 3107 3106 3105 3103 3100 3097 3094 3091 3087 3083 3078 3073